[[{"header":{"parameterUnit":"m.s-1","parameterCategory":1,"la1":30.2991,"la2":30.254,"lo1":-89.0895,"lo2":-89.0444,"dy":0.0017,"dx":0.0017,"nx":28,"ny":28,"refTime":"2023-09-22T03:00:00:Z","depth":0,"parameterNumber":2,"parameterNumberName":"U-component_of_WINDS"},"data":[0,0,0,0,0,0,0,0,0,0,0,0,0,0,0,0,0,0,0,0,0,0,0,0,0,0,0,0,0,0,0,0,0,0,0,0,0,0,0,0,0,0,0,0,0,0,0,0,0,0,0,0,0,0,0,0,0,0,-4.4833,-4.4835,0,-4.4933,-4.4934,-4.4935,-4.4876,-4.4873,-4.4871,-4.4868,-4.4966,-4.4971,-4.4976,0,0,0,0,0,0,0,0,0,0,0,0,0,-4.4591,-4.4596,-4.4833,-4.4835,-4.4836,-4.4932,-4.4934,-4.4935,-4.4877,-4.4873,-4.487,-4.4867,-4.4964,-4.4971,-4.4977,0,0,0,0,0,0,0,0,0,0,0,0,0,-4.4694,-4.4598,-4.4833,-4.4819,-4.4818,-4.4932,-4.4934,-4.4935,-4.4877,-4.4873,-4.4869,-4.4865,-4.4962,-4.497,-4.4978,-4.511,0,0,-4.5002,-4.5005,0,0,0,0,0,0,0,0,-4.4688,-4.4703,-4.4819,-4.482,-4.482,-4.4888,-4.4884,-4.4994,-4.4879,-4.4855,-4.4868,-4.4863,-4.4943,-4.4952,-4.498,-4.5115,-4.5119,-4.5002,-4.5007,-4.501,-4.5013,0,0,0,0,0,0,0,-4.4681,-4.4698,-4.4872,-4.4821,-4.4821,-4.4806,-4.4816,-4.4905,-4.4921,-4.4857,-4.4853,-4.4865,-4.4942,-4.4973,-4.4982,-4.5121,-4.5002,-4.5009,-4.5014,-4.5017,-4.537,-4.5374,0,0,0,0,0,0,-4.4676,-4.4693,-4.4869,-4.4875,-4.4742,-4.4814,-4.4825,-4.487,-4.492,-4.4924,-4.4869,-4.4862,-4.4961,-4.4973,-4.4985,-4.5143,-4.501,-4.5018,-4.5022,-4.5365,-4.5371,-4.5376,0,0,0,0,0,0,-4.4671,-4.4692,-4.4865,-4.4783,-4.4804,-4.4823,-4.4874,-4.4874,-4.4904,-4.493,-4.4932,-4.4897,-4.4958,-4.4974,-4.508,-4.5146,-4.5021,-4.5028,-4.5359,-4.5367,-4.5373,-4.5461,0,0,0,0,0,0,-4.4664,-4.469,-4.4741,-4.4785,-4.4809,-4.4959,-4.4878,-4.4879,-4.4918,-4.4911,-4.4956,-4.496,-4.4956,-4.5069,-4.5088,-4.5154,-4.5035,-4.5354,-4.5363,-4.5371,-4.5452,-4.547,-4.5485,0,0,0,0,0,-4.4655,-4.4761,-4.4744,-4.4766,-4.4873,-4.4963,-4.4977,-4.4971,-4.4924,-4.4975,-4.4991,-4.4958,-4.5136,-4.508,-4.5101,-4.5171,-4.5349,-4.536,-4.537,-4.5444,-4.5466,-4.5485,0,0,0,0,0,0,-4.4724,-4.4767,-4.4748,-4.4872,-4.4915,-4.4953,-4.5017,-4.4995,-4.5051,-4.5041,-4.5031,-4.5042,-4.5152,-4.5173,-4.5109,-4.5302,-4.5235,-4.525,-4.5284,-4.5305,-4.5322,-4.5313,-4.5041,0,0,0,0,0,-4.4754,-4.4824,-4.4858,-4.4963,-4.4986,-4.4998,-4.5037,-4.503,-4.5073,-4.509,-4.5114,-4.5157,-4.5222,-4.5265,-4.5327,-4.5456,-4.5464,-4.5514,-4.5531,-4.5544,-4.5557,-4.5626,-4.5648,-4.541,-4.541,-4.541,0,0,-4.4815,-4.4847,-4.4892,-4.4978,-4.501,-4.5082,-4.5014,-4.5093,-4.5146,-4.5102,-4.5203,-4.5223,-4.527,-4.5388,-4.5441,-4.5408,-4.5625,-4.5558,-4.5568,-4.5573,-4.5639,-4.5661,-4.5681,-4.5417,-4.5416,-4.5415,0,0,-4.4963,-4.4996,-4.5087,-4.5121,-4.5172,-4.5179,-4.5202,-4.5245,-4.5256,-4.5358,-4.5327,-4.539,-4.5503,-4.5537,-4.557,-4.5734,-4.5705,-4.5755,-4.584,-4.5907,-4.5926,-4.5943,-4.6,-4.602,-4.5767,-4.5768,-4.5768,0,-4.5033,-4.5141,-4.5136,-4.5219,-4.5257,-4.5223,-4.5314,-4.5348,-4.5415,-4.5442,-4.5405,-4.5546,-4.5576,-4.5701,-4.5741,-4.5769,-4.5793,-4.5748,-4.5924,-4.5941,-4.5956,-4.601,-4.6032,-4.5773,-4.5773,-4.5772,-4.5771,0,-4.5223,-4.5299,-4.5367,-4.5434,-4.5481,-4.5567,-4.5575,-4.5622,-4.5612,-4.5623,-4.5728,-4.5762,-4.583,-4.586,-4.585,-4.5984,-4.5962,-4.5925,-4.5857,-4.5984,-4.6035,-4.6056,-4.5781,-4.5779,-4.5777,-4.5776,0,0,-4.5415,-4.548,-4.5505,-4.5535,-4.5589,-4.5647,-4.5732,-4.58,-4.584,-4.5889,-4.5959,-4.6057,-4.6023,-4.606,-4.6054,-4.6114,-4.624,-4.6069,-4.607,-4.6098,-4.6389,-4.6415,-4.6439,-4.6223,-4.6227,-4.623,-4.6384,0,-4.5565,-4.5714,-4.5713,-4.5851,-4.5921,-4.5891,-4.5965,-4.6006,-4.602,-4.608,-4.6095,-4.6164,-4.6115,-4.6137,-4.6195,-4.6213,-4.6298,-4.6202,-4.6287,-4.629,-4.6273,-4.6466,-4.6493,-4.6637,-4.6404,-4.6408,-4.641,0,-4.576,-4.5816,-4.5961,-4.6005,-4.6034,-4.6101,-4.6163,-4.6222,-4.6268,-4.6274,-4.6317,-4.6302,-4.6388,-4.632,-4.6438,-4.6373,-4.6408,-4.6422,-4.6427,-4.6433,-4.6356,-4.6474,-4.6683,-4.6703,-4.6442,-4.6439,-4.6437,0,-4.5882,-4.5994,-4.6096,-4.6123,-4.6178,-4.6225,-4.625,-4.6292,-4.6333,-4.6388,-4.6414,-4.6478,-4.6512,-4.6562,-4.6564,-4.6515,-4.6683,-4.6615,-4.6689,-4.6689,-4.6723,-4.672,-4.6938,-4.675,-4.675,-4.6749,-4.6749,0,-4.6049,-4.6138,-4.6151,-4.6213,-4.6313,-4.6311,-4.641,-4.643,-4.6468,-4.6533,-4.6511,-4.6573,-4.6574,-4.6636,-4.6639,-4.6736,-4.6752,-4.6758,-4.6757,-4.6759,-4.6758,-4.6779,-4.6769,-4.6755,-4.6754,-4.6753,-4.6752,0,-4.6201,-4.6214,-4.6322,-4.6366,-4.6379,-4.645,-4.6487,-4.6546,-4.6559,-4.6642,-4.6661,-4.6681,-4.6754,-4.6762,-4.6847,-4.6848,-4.6965,-4.6954,-4.6949,-4.6947,-4.7019,-4.7011,-4.7256,-4.7287,-4.7081,-4.7083,-4.7085,0,-4.6305,-4.6374,-4.6426,-4.6468,-4.6496,-4.6565,-4.6607,-4.6609,-4.6653,-4.6712,-4.6763,-4.6834,-4.6891,-4.7008,-4.703,-4.7094,-4.7084,-4.7165,-4.7093,-4.7093,-4.7083,-4.7078,-4.7084,-4.7178,-4.718,-4.7182,-4.7184,0,-4.6488,-4.6492,-4.6554,-4.6619,-4.667,-4.6721,-4.6769,-4.6805,-4.6812,-4.6864,-4.6938,-4.6983,-4.707,-4.714,-4.7204,-4.7229,-4.7208,-4.7207,-4.7227,-4.7228,-4.7221,-4.7224,-4.6985,-4.7201,-4.7199,-4.7198,-4.7197,-4.7196,-4.6619,-4.6678,-4.6724,-4.6794,-4.683,-4.6876,-4.6933,-4.6954,-4.7017,-4.7088,-4.7086,-4.7168,-4.7213,-4.7297,-4.7327,-4.739,-4.7363,-4.7393,-4.74,-4.7406,-4.7413,-4.7214,-4.7402,-4.7402,-4.7401,-4.7401,-4.7401,0,-4.6799,-4.6827,-4.6892,-4.696,-4.7015,-4.6993,-4.7045,-4.7092,-4.7165,-4.7209,-4.7266,-4.7352,-4.742,-4.7449,-4.7515,-4.7561,-4.7553,-4.7578,-4.7574,-4.758,-4.7434,-4.7409,-4.7584,-4.7584,-4.7584,-4.7584,-4.7584,-4.7584,-4.6899,-4.6998,-4.7007,-4.7124,-4.7151,-4.7232,-4.7264,-4.7305,-4.7341,-4.7438,-4.7495,-4.7514,-4.7551,-4.7621,-4.7683,-4.7689,-4.7714,-4.7744,-4.7746,-4.7609,-4.759,-4.7572,-4.7548,-4.775,-4.775,-4.7885,-4.7887,-4.7888]},{"header":{"parameterUnit":"m.s-1","parameterCategory":1,"la1":30.2991,"la2":30.254,"lo1":-89.0895,"lo2":-89.0444,"dy":0.0017,"dx":0.0017,"nx":28,"ny":28,"refTime":"2023-09-22T03:00:00:Z","depth":0,"parameterNumber":3,"parameterNumberName":"V-component_of_WINDS"},"data":[0,0,0,0,0,0,0,0,0,0,0,0,0,0,0,0,0,0,0,0,0,0,0,0,0,0,0,0,0,0,0,0,0,0,0,0,0,0,0,0,0,0,0,0,0,0,0,0,0,0,0,0,0,0,0,0,0,0,1.397,1.3969,0,1.3913,1.3912,1.3911,1.3869,1.3869,1.3868,1.3868,1.3804,1.3802,1.3801,0,0,0,0,0,0,0,0,0,0,0,0,0,1.4036,1.4035,1.397,1.3969,1.3968,1.3913,1.3912,1.3911,1.3869,1.3869,1.3868,1.3868,1.3804,1.3802,1.3801,0,0,0,0,0,0,0,0,0,0,0,0,0,1.3996,1.4035,1.397,1.3941,1.3937,1.3913,1.3912,1.3911,1.3869,1.3869,1.3868,1.3867,1.3805,1.3803,1.3801,1.3799,0,0,1.3794,1.3793,0,0,0,0,0,0,0,0,1.3998,1.3994,1.3946,1.3943,1.3939,1.3898,1.3912,1.3873,1.3869,1.3895,1.3868,1.3867,1.3835,1.383,1.3821,1.3796,1.3793,1.3794,1.3793,1.3792,1.3791,0,0,0,0,0,0,0,1.4001,1.3996,1.3947,1.3945,1.3941,1.3929,1.3922,1.3905,1.3868,1.3893,1.3889,1.3884,1.3833,1.3823,1.3819,1.3792,1.3794,1.3792,1.3791,1.379,1.3763,1.3763,0,0,0,0,0,0,1.4009,1.3999,1.3949,1.3945,1.3968,1.3928,1.3921,1.3911,1.3869,1.3862,1.3884,1.3882,1.3827,1.3821,1.3816,1.3811,1.3792,1.379,1.3789,1.3762,1.3763,1.3763,0,0,0,0,0,0,1.4011,1.4005,1.3951,1.3971,1.3963,1.3927,1.3917,1.391,1.39,1.3862,1.3855,1.3881,1.3826,1.3819,1.3804,1.3808,1.3789,1.3787,1.3762,1.3762,1.3763,1.3801,0,0,0,0,0,0,1.4013,1.4006,1.4006,1.3971,1.3962,1.3941,1.3917,1.391,1.3898,1.3894,1.3857,1.385,1.3825,1.3807,1.3802,1.3805,1.3786,1.3761,1.3762,1.3763,1.3799,1.3803,1.3806,0,0,0,0,0,1.4016,1.4018,1.4007,1.4001,1.3962,1.3942,1.3936,1.3909,1.3898,1.3897,1.3873,1.3852,1.3809,1.3806,1.38,1.3802,1.3761,1.3762,1.3763,1.3798,1.3802,1.3806,0,0,0,0,0,0,1.4052,1.4013,1.4,1.3991,1.397,1.3934,1.3932,1.3914,1.3894,1.3892,1.3857,1.3849,1.3837,1.3818,1.3815,1.3798,1.3782,1.3782,1.3811,1.3815,1.3819,1.3823,1.3784,0,0,0,0,0,1.406,1.4048,1.4014,1.4009,1.4,1.3968,1.3958,1.3939,1.3915,1.3905,1.388,1.3856,1.3837,1.3825,1.3806,1.3797,1.3788,1.3796,1.3799,1.3802,1.3802,1.3795,1.3798,1.3767,1.3767,1.3767,0,0,1.4074,1.4051,1.4045,1.4016,1.3998,1.3985,1.3961,1.3948,1.3938,1.3903,1.3887,1.3868,1.3838,1.3826,1.382,1.381,1.3809,1.3804,1.3807,1.3804,1.3797,1.38,1.3803,1.3768,1.3768,1.3767,0,0,1.4094,1.4076,1.407,1.4053,1.4026,1.4005,1.4004,1.3971,1.3958,1.3942,1.3915,1.3902,1.387,1.3851,1.3836,1.385,1.3829,1.3845,1.3863,1.3857,1.3859,1.3861,1.3865,1.3867,1.3845,1.3845,1.3845,0,1.4114,1.4096,1.4069,1.4059,1.4046,1.4016,1.401,1.3993,1.3961,1.3952,1.3943,1.3903,1.3881,1.3864,1.3868,1.3858,1.3854,1.3848,1.3861,1.3863,1.3864,1.3868,1.3869,1.3847,1.3847,1.3847,1.3846,0,1.4122,1.411,1.4108,1.408,1.4067,1.4058,1.4029,1.4019,1.4002,1.3981,1.3965,1.3939,1.3913,1.3908,1.389,1.3888,1.3883,1.3868,1.3851,1.387,1.3872,1.3873,1.385,1.3849,1.3849,1.3848,0,0,1.4161,1.412,1.412,1.4107,1.4076,1.4064,1.4054,1.4032,1.4023,1.4002,1.3991,1.3967,1.3953,1.3937,1.3916,1.3911,1.3923,1.3896,1.3895,1.3901,1.3918,1.3929,1.3931,1.391,1.391,1.391,1.392,0,1.4175,1.4157,1.4133,1.4122,1.411,1.4082,1.4073,1.4052,1.4033,1.4019,1.3997,1.3979,1.3963,1.3953,1.3947,1.3923,1.3925,1.3922,1.3898,1.3897,1.3905,1.3932,1.3944,1.3955,1.3921,1.3921,1.3922,0,1.4189,1.4171,1.416,1.413,1.4124,1.4117,1.4094,1.4081,1.4056,1.4043,1.4026,1.4005,1.3991,1.3977,1.3956,1.3954,1.3943,1.393,1.3929,1.3925,1.391,1.3927,1.3957,1.3959,1.3923,1.3923,1.3923,0,1.4217,1.4191,1.4181,1.417,1.4136,1.4131,1.4116,1.4091,1.4079,1.4059,1.4051,1.4029,1.4016,1.3999,1.3971,1.3964,1.3954,1.3937,1.394,1.3941,1.3938,1.3938,1.3966,1.3933,1.3933,1.3933,1.3933,0,1.4235,1.4228,1.4193,1.4187,1.4179,1.4151,1.4143,1.4126,1.4104,1.4092,1.4067,1.4056,1.4021,1.4006,1.3984,1.397,1.3964,1.3952,1.3946,1.3953,1.3955,1.3944,1.3942,1.3934,1.3933,1.3933,1.3933,0,1.4265,1.4241,1.4228,1.4197,1.419,1.4185,1.4157,1.4149,1.413,1.4115,1.411,1.4079,1.4059,1.4031,1.4002,1.3988,1.3976,1.3967,1.3985,1.3982,1.3986,1.3985,1.4006,1.4007,1.3976,1.3976,1.3976,0,1.4277,1.4272,1.4241,1.4233,1.4219,1.4205,1.4194,1.4167,1.4155,1.4128,1.4122,1.4102,1.4084,1.4054,1.4027,1.4005,1.3994,1.4003,1.399,1.3998,1.3993,1.3993,1.3992,1.4006,1.4006,1.4007,1.4007,0,1.43,1.4289,1.4274,1.4256,1.4243,1.4227,1.4209,1.4203,1.4171,1.4159,1.4141,1.4127,1.4099,1.4078,1.4053,1.4035,1.4015,1.4012,1.4011,1.4018,1.4028,1.4022,1.3992,1.4011,1.401,1.401,1.401,1.401,1.4321,1.4315,1.4293,1.4277,1.4261,1.4246,1.4237,1.4217,1.4201,1.4178,1.4162,1.4144,1.4119,1.4084,1.4067,1.4052,1.4043,1.4042,1.4042,1.4042,1.4044,1.4032,1.4047,1.4047,1.4047,1.4046,1.4046,0,1.4342,1.4327,1.4313,1.429,1.4277,1.4263,1.4242,1.4232,1.4217,1.4197,1.418,1.4158,1.4138,1.4111,1.4089,1.4081,1.4071,1.4076,1.4075,1.4071,1.4053,1.4056,1.4084,1.4084,1.4084,1.4084,1.4084,1.4084,1.4351,1.4341,1.4327,1.4308,1.4293,1.4276,1.4266,1.4251,1.4234,1.4212,1.4196,1.4179,1.4155,1.4131,1.4112,1.4104,1.4096,1.4104,1.4093,1.4076,1.4073,1.4069,1.4071,1.4103,1.4103,1.4112,1.4112,1.4112]}]]